Location: Chillicothe
(39.7950°N, 93.5520°W)
Time: 15:54:37
(UTC-06:00)

BEESAT - Pass Details

Date: 22 November 2019
Orbit: 700 x 709 km, 98.6° (Epoch: 05 December)

Event Time Altitude Azimuth Distance (km) Brightness Sun altitude
Rises 18:28:38 0° 3° (N) 3,097 ? -18.1°
Reaches altitude 10° 18:31:02 10° 355° (N) 2,176 ? -18.5°
Maximum altitude 18:35:19 35° 291° (WNW) 1,140 ? -19.3°
Drops below altitude 10° 18:39:36 10° 226° (SW) 2,167 ? -20.1°
Sets 18:42:00 0° 218° (SW) 3,083 ? -20.6°
